sat.trackr.live / text

‹ back to catalog

HULIANWANG DIGUI-81

NORAD 65313 · 2025-187J

PAYLOAD ACTIVE UNKNOWN

§ Identity

Operator
Country
PRC
Launch date
2025-08-25
Launch site
WSC
Launch vehicle
Mass (kg)
RCS (m²)

External: N2YO · Heavens-Above · Gunter

§ Orbital elements

Epoch: 2026-05-25T04:46:55.231104Z

Period
108.33 min
Inclination
50.0076°
Eccentricity
0.0000599
Mean motion
13.29323906 rev/d
Perigee alt
1,148.9 km
Apogee alt
1,149.8 km
Semi-major
7,527.5 km
B*
5.2925e-5
RAAN
288.2912°
Arg perigee
96.7742°
Mean anomaly
263.3198°
Rev number
3,665

§ Raw data

HULIANWANG DIGUI-811 65313U 25187J   26145.19925036 -.00000099  00000+0  52925-4 0  99992 65313  50.0076 288.2912 0000599  96.7742 263.3198 13.29323906 36658

JSON: /api/v1/satellites/65313 · /tle

For live sub-satellite position, see the globe view (requires WebGL).

§ Visibility from observer

Set your observer location to see the next 7 days of passes ≥ 10°. The values pass through the URL so the page stays shareable.

No JS? Fill the form by hand. The geolocation button needs JavaScript.